Year,Month,Day,Hour,Minute,Value (Times are PST for temperature in C)
2006,08,16,00,00,16.40
2006,08,16,00,01,16.40
2006,08,16,00,02,16.40
2006,08,16,00,03,16.40
2006,08,16,00,04,16.30
2006,08,16,00,05,16.30
2006,08,16,00,06,16.30
2006,08,16,00,07,16.20
2006,08,16,00,08,16.20
2006,08,16,00,09,16.20
2006,08,16,00,10,16.20
2006,08,16,00,11,16.20
2006,08,16,00,12,16.10
2006,08,16,00,13,16.10
2006,08,16,00,14,16.10
2006,08,16,00,15,16.10
2006,08,16,00,16,16.10
2006,08,16,00,17,16.10
2006,08,16,00,18,16.10
2006,08,16,00,19,16.10
2006,08,16,00,20,16.10
2006,08,16,00,21,16.10
2006,08,16,00,22,16.10
2006,08,16,00,23,16.10
2006,08,16,00,24,16.10
2006,08,16,00,25,16.10
2006,08,16,00,26,16.10
2006,08,16,00,27,16.10
2006,08,16,00,28,16.00
2006,08,16,00,29,15.90
2006,08,16,00,30,15.90
2006,08,16,00,31,15.90
2006,08,16,00,32,15.80
2006,08,16,00,33,15.80
2006,08,16,00,34,15.80
2006,08,16,00,35,15.80
2006,08,16,00,36,15.80
2006,08,16,00,37,15.80
2006,08,16,00,38,15.70
2006,08,16,00,39,15.70
2006,08,16,00,40,15.70
2006,08,16,00,41,15.60
2006,08,16,00,42,15.60
2006,08,16,00,43,15.60
2006,08,16,00,44,15.60
2006,08,16,00,45,15.50
2006,08,16,00,46,15.50
2006,08,16,00,47,15.50
2006,08,16,00,48,15.50
2006,08,16,00,49,15.40
2006,08,16,00,50,15.40
2006,08,16,00,51,15.40
2006,08,16,00,52,15.30
2006,08,16,00,53,15.30
2006,08,16,00,54,15.30
2006,08,16,00,55,15.30
2006,08,16,00,56,15.30
2006,08,16,00,57,15.30
2006,08,16,00,58,15.20
2006,08,16,00,59,15.20
2006,08,16,01,00,15.20
2006,08,16,01,01,15.20
2006,08,16,01,02,15.20
2006,08,16,01,03,15.10
2006,08,16,01,04,15.10
2006,08,16,01,05,15.10
2006,08,16,01,06,15.10
2006,08,16,01,07,15.10
2006,08,16,01,08,15.00
2006,08,16,01,09,15.00
2006,08,16,01,10,15.00
2006,08,16,01,11,15.00
2006,08,16,01,12,14.90
2006,08,16,01,13,14.90
2006,08,16,01,14,14.90
2006,08,16,01,15,14.80
2006,08,16,01,16,14.80
2006,08,16,01,17,14.80
2006,08,16,01,18,14.80
2006,08,16,01,19,14.80
2006,08,16,01,20,14.80
2006,08,16,01,21,14.70
2006,08,16,01,22,14.70
2006,08,16,01,23,14.70
2006,08,16,01,24,14.70
2006,08,16,01,25,14.70
2006,08,16,01,26,14.70
2006,08,16,01,27,14.60
2006,08,16,01,28,14.60
2006,08,16,01,29,14.60
2006,08,16,01,30,14.60
2006,08,16,01,31,14.60
2006,08,16,01,32,14.60
2006,08,16,01,33,14.60
2006,08,16,01,34,14.60
2006,08,16,01,35,14.60
2006,08,16,01,36,14.60
2006,08,16,01,37,14.60
2006,08,16,01,38,14.70
2006,08,16,01,39,14.70
2006,08,16,01,40,14.80
2006,08,16,01,41,14.80
2006,08,16,01,42,14.80
2006,08,16,01,43,14.80
2006,08,16,01,44,14.80
2006,08,16,01,45,14.80
2006,08,16,01,46,14.80
2006,08,16,01,47,14.80
2006,08,16,01,48,14.80
2006,08,16,01,49,14.80
2006,08,16,01,50,14.70
2006,08,16,01,51,14.70
2006,08,16,01,52,14.60
2006,08,16,01,53,14.60
2006,08,16,01,54,14.50
2006,08,16,01,55,14.40
2006,08,16,01,56,14.40
2006,08,16,01,57,14.30
2006,08,16,01,58,14.30
2006,08,16,01,59,14.20
2006,08,16,02,00,14.20
2006,08,16,02,01,14.10
2006,08,16,02,02,14.00
2006,08,16,02,03,14.00
2006,08,16,02,04,13.90
2006,08,16,02,05,13.80
2006,08,16,02,06,13.80
2006,08,16,02,07,13.70
2006,08,16,02,08,13.70
2006,08,16,02,09,13.70
2006,08,16,02,10,13.60
2006,08,16,02,11,13.50
2006,08,16,02,12,13.50
2006,08,16,02,13,13.40
2006,08,16,02,14,13.40
2006,08,16,02,15,13.40
2006,08,16,02,16,13.30
2006,08,16,02,17,13.30
2006,08,16,02,18,13.30
2006,08,16,02,19,13.30
2006,08,16,02,20,13.30
2006,08,16,02,21,13.30
2006,08,16,02,22,13.30
2006,08,16,02,23,13.30
2006,08,16,02,24,13.30
2006,08,16,02,25,13.30
2006,08,16,02,26,13.30
2006,08,16,02,27,13.30
2006,08,16,02,28,13.30
2006,08,16,02,29,13.30
2006,08,16,02,30,13.30
2006,08,16,02,31,13.30
2006,08,16,02,32,13.30
2006,08,16,02,33,13.30
2006,08,16,02,34,13.20
2006,08,16,02,35,13.20
2006,08,16,02,36,13.20
2006,08,16,02,37,13.20
2006,08,16,02,38,13.20
2006,08,16,02,39,13.20
2006,08,16,02,40,13.10
2006,08,16,02,41,13.10
2006,08,16,02,42,13.10
2006,08,16,02,43,13.10
2006,08,16,02,44,13.00
2006,08,16,02,45,13.00
2006,08,16,02,46,13.00
2006,08,16,02,47,13.00
2006,08,16,02,48,12.90
2006,08,16,02,49,12.90
2006,08,16,02,50,12.90
2006,08,16,02,51,12.90
2006,08,16,02,52,12.80
2006,08,16,02,53,12.80
2006,08,16,02,54,12.80
2006,08,16,02,55,12.80
2006,08,16,02,56,12.80
2006,08,16,02,57,12.80
2006,08,16,02,58,12.80
2006,08,16,02,59,12.80
2006,08,16,03,00,12.80
2006,08,16,03,01,12.70
2006,08,16,03,02,12.70
2006,08,16,03,03,12.70
2006,08,16,03,04,12.70
2006,08,16,03,05,12.70
2006,08,16,03,06,12.60
2006,08,16,03,07,12.60
2006,08,16,03,08,12.60
2006,08,16,03,09,12.60
2006,08,16,03,10,12.60
2006,08,16,03,11,12.60
2006,08,16,03,12,12.50
2006,08,16,03,13,12.50
2006,08,16,03,14,12.50
2006,08,16,03,15,12.50
2006,08,16,03,16,12.50
2006,08,16,03,17,12.40
2006,08,16,03,18,12.40
2006,08,16,03,19,12.40
2006,08,16,03,20,12.40
2006,08,16,03,21,12.40
2006,08,16,03,22,12.40
2006,08,16,03,23,12.30
2006,08,16,03,24,12.30
2006,08,16,03,25,12.30
2006,08,16,03,26,12.30
2006,08,16,03,27,12.30
2006,08,16,03,28,12.30
2006,08,16,03,29,12.30
2006,08,16,03,30,12.30
2006,08,16,03,31,12.30
2006,08,16,03,32,12.30
2006,08,16,03,33,12.30
2006,08,16,03,34,12.30
2006,08,16,03,35,12.30
2006,08,16,03,36,12.30
2006,08,16,03,37,12.30
2006,08,16,03,38,12.30
2006,08,16,03,39,12.30
2006,08,16,03,40,12.30
2006,08,16,03,41,12.30
2006,08,16,03,42,12.20
2006,08,16,03,43,12.20
2006,08,16,03,44,12.20
2006,08,16,03,45,12.20
2006,08,16,03,46,12.20
2006,08,16,03,47,12.20
2006,08,16,03,48,12.20
2006,08,16,03,49,12.20
2006,08,16,03,50,12.20
2006,08,16,03,51,12.20
2006,08,16,03,52,12.20
2006,08,16,03,53,12.20
2006,08,16,03,54,12.20
2006,08,16,03,55,12.10
2006,08,16,03,56,12.10
2006,08,16,03,57,12.10
2006,08,16,03,58,12.10
2006,08,16,03,59,12.00
2006,08,16,04,00,12.00
2006,08,16,04,01,12.00
2006,08,16,04,02,12.00
2006,08,16,04,03,11.90
2006,08,16,04,04,11.90
2006,08,16,04,05,11.90
2006,08,16,04,06,11.80
2006,08,16,04,07,11.80
2006,08,16,04,08,11.80
2006,08,16,04,09,11.80
2006,08,16,04,10,11.80
2006,08,16,04,11,11.70
2006,08,16,04,12,11.70
2006,08,16,04,13,11.60
2006,08,16,04,14,11.60
2006,08,16,04,15,11.60
2006,08,16,04,16,11.60
2006,08,16,04,17,11.60
2006,08,16,04,18,11.60
2006,08,16,04,19,11.50
2006,08,16,04,20,11.40
2006,08,16,04,21,11.40
2006,08,16,04,22,11.40
2006,08,16,04,23,11.40
2006,08,16,04,24,11.40
2006,08,16,04,25,11.40
2006,08,16,04,26,11.30
2006,08,16,04,27,11.30
2006,08,16,04,28,11.30
2006,08,16,04,29,11.30
2006,08,16,04,30,11.20
2006,08,16,04,31,11.20
2006,08,16,04,32,11.20
2006,08,16,04,33,11.20
2006,08,16,04,34,11.10
2006,08,16,04,35,11.10
2006,08,16,04,36,11.10
2006,08,16,04,37,11.10
2006,08,16,04,38,11.10
2006,08,16,04,39,11.10
2006,08,16,04,40,11.10
2006,08,16,04,41,11.10
2006,08,16,04,42,11.10
2006,08,16,04,43,11.00
2006,08,16,04,44,10.90
2006,08,16,04,45,10.90
2006,08,16,04,46,10.90
2006,08,16,04,47,10.90
2006,08,16,04,48,10.90
2006,08,16,04,49,10.90
2006,08,16,04,50,10.90
2006,08,16,04,51,10.90
2006,08,16,04,52,10.90
2006,08,16,04,53,10.90
2006,08,16,04,54,10.90
2006,08,16,04,55,10.90
2006,08,16,04,56,10.90
2006,08,16,04,57,10.90
2006,08,16,04,58,10.90
2006,08,16,04,59,10.90
2006,08,16,05,00,10.90
2006,08,16,05,01,10.90
2006,08,16,05,02,10.90
2006,08,16,05,03,10.90
2006,08,16,05,04,10.90
2006,08,16,05,05,10.90
2006,08,16,05,06,10.90
2006,08,16,05,07,10.80
2006,08,16,05,08,10.80
2006,08,16,05,09,10.80
2006,08,16,05,10,10.80
2006,08,16,05,11,10.80
2006,08,16,05,12,10.80
2006,08,16,05,13,10.80
2006,08,16,05,14,10.80
2006,08,16,05,15,10.80
2006,08,16,05,16,10.80
2006,08,16,05,17,10.70
2006,08,16,05,18,10.70
2006,08,16,05,19,10.70
2006,08,16,05,20,10.70
2006,08,16,05,21,10.70
2006,08,16,05,22,10.70
2006,08,16,05,23,10.70
2006,08,16,05,24,10.70
2006,08,16,05,25,10.70
2006,08,16,05,26,10.70
2006,08,16,05,27,10.70
2006,08,16,05,28,10.70
2006,08,16,05,29,10.70
2006,08,16,05,30,10.70
2006,08,16,05,31,10.70
2006,08,16,05,32,10.70
2006,08,16,05,33,10.70
2006,08,16,05,34,10.70
2006,08,16,05,35,10.70
2006,08,16,05,36,10.70
2006,08,16,05,37,10.70
2006,08,16,05,38,10.70
2006,08,16,05,39,10.70
2006,08,16,05,40,10.70
2006,08,16,05,41,10.70
2006,08,16,05,42,10.70
2006,08,16,05,43,10.70
2006,08,16,05,44,10.70
2006,08,16,05,45,10.70
2006,08,16,05,46,10.70
2006,08,16,05,47,10.70
2006,08,16,05,48,10.80
2006,08,16,05,49,10.80
2006,08,16,05,50,10.80
2006,08,16,05,51,10.80
2006,08,16,05,52,10.80
2006,08,16,05,53,10.80
2006,08,16,05,54,10.80
2006,08,16,05,55,10.80
2006,08,16,05,56,10.80
2006,08,16,05,57,10.80
2006,08,16,05,58,10.80
2006,08,16,05,59,10.80
2006,08,16,06,00,10.80
2006,08,16,06,01,10.80
2006,08,16,06,02,10.80
2006,08,16,06,03,10.80
2006,08,16,06,04,10.80
2006,08,16,06,05,10.80
2006,08,16,06,06,10.80
2006,08,16,06,07,10.80
2006,08,16,06,08,10.80
2006,08,16,06,09,10.80
2006,08,16,06,10,10.80
2006,08,16,06,11,10.80
2006,08,16,06,12,10.80
2006,08,16,06,13,10.80
2006,08,16,06,14,10.80
2006,08,16,06,15,10.80
2006,08,16,06,16,10.80
2006,08,16,06,17,10.80
2006,08,16,06,18,10.80
2006,08,16,06,19,10.80
2006,08,16,06,20,10.80
2006,08,16,06,21,10.80
2006,08,16,06,22,10.80
2006,08,16,06,23,10.80
2006,08,16,06,24,10.80
2006,08,16,06,25,10.80
2006,08,16,06,26,10.90
2006,08,16,06,27,10.90
2006,08,16,06,28,10.90
2006,08,16,06,29,10.90
2006,08,16,06,30,10.90
2006,08,16,06,31,10.90
2006,08,16,06,32,10.90
2006,08,16,06,33,10.90
2006,08,16,06,34,10.90
2006,08,16,06,35,10.90
2006,08,16,06,36,11.00
2006,08,16,06,37,11.10
2006,08,16,06,38,11.10
2006,08,16,06,39,11.10
2006,08,16,06,40,11.10
2006,08,16,06,41,11.10
2006,08,16,06,42,11.10
2006,08,16,06,43,11.10
2006,08,16,06,44,11.20
2006,08,16,06,45,11.30
2006,08,16,06,46,11.30
2006,08,16,06,47,11.30
2006,08,16,06,48,11.40
2006,08,16,06,49,11.40
2006,08,16,06,50,11.40
2006,08,16,06,51,11.50
2006,08,16,06,52,11.60
2006,08,16,06,53,11.60
2006,08,16,06,54,11.60
2006,08,16,06,55,11.60
2006,08,16,06,56,11.60
2006,08,16,06,57,11.70
2006,08,16,06,58,11.70
2006,08,16,06,59,11.70
2006,08,16,07,00,11.80
2006,08,16,07,01,11.80
2006,08,16,07,02,11.80
2006,08,16,07,03,11.80
2006,08,16,07,04,11.80
2006,08,16,07,05,11.80
2006,08,16,07,06,11.80
2006,08,16,07,07,11.90
2006,08,16,07,08,11.90
2006,08,16,07,09,11.90
2006,08,16,07,10,12.00
2006,08,16,07,11,12.00
2006,08,16,07,12,12.10
2006,08,16,07,13,12.10
2006,08,16,07,14,12.20
2006,08,16,07,15,12.20
2006,08,16,07,16,12.30
2006,08,16,07,17,12.30
2006,08,16,07,18,12.30
2006,08,16,07,19,12.30
2006,08,16,07,20,12.40
2006,08,16,07,21,12.50
2006,08,16,07,22,12.50
2006,08,16,07,23,12.60
2006,08,16,07,24,12.60
2006,08,16,07,25,12.70
2006,08,16,07,26,12.70
2006,08,16,07,27,12.80
2006,08,16,07,28,12.90
2006,08,16,07,29,13.00
2006,08,16,07,30,13.00
2006,08,16,07,31,13.10
2006,08,16,07,32,13.10
2006,08,16,07,33,13.20
2006,08,16,07,34,13.30
2006,08,16,07,35,13.30
2006,08,16,07,36,13.40
2006,08,16,07,37,13.40
2006,08,16,07,38,13.50
2006,08,16,07,39,13.50
2006,08,16,07,40,13.60
2006,08,16,07,41,13.60
2006,08,16,07,42,13.70
2006,08,16,07,43,13.70
2006,08,16,07,44,13.80
2006,08,16,07,45,13.90
2006,08,16,07,46,14.00
2006,08,16,07,47,14.00
2006,08,16,07,48,14.20
2006,08,16,07,49,14.20
2006,08,16,07,50,14.30
2006,08,16,07,51,14.30
2006,08,16,07,52,14.40
2006,08,16,07,53,14.50
2006,08,16,07,54,14.50
2006,08,16,07,55,14.50
2006,08,16,07,56,14.60
2006,08,16,07,57,14.60
2006,08,16,07,58,14.70
2006,08,16,07,59,14.70
2006,08,16,08,00,14.80
2006,08,16,08,01,14.80
2006,08,16,08,02,14.80
2006,08,16,08,03,14.90
2006,08,16,08,04,14.90
2006,08,16,08,05,15.00
2006,08,16,08,06,15.00
2006,08,16,08,07,15.10
2006,08,16,08,08,15.10
2006,08,16,08,09,15.10
2006,08,16,08,10,15.20
2006,08,16,08,11,15.20
2006,08,16,08,12,15.20
2006,08,16,08,13,15.20
2006,08,16,08,14,15.30
2006,08,16,08,15,15.30
2006,08,16,08,16,15.30
2006,08,16,08,17,15.30
2006,08,16,08,18,15.30
2006,08,16,08,19,15.30
2006,08,16,08,20,15.30
2006,08,16,08,21,15.30
2006,08,16,08,22,15.30
2006,08,16,08,23,15.30
2006,08,16,08,24,15.40
2006,08,16,08,25,15.40
2006,08,16,08,26,15.40
2006,08,16,08,27,15.50
2006,08,16,08,28,15.50
2006,08,16,08,29,15.50
2006,08,16,08,30,15.50
2006,08,16,08,31,15.50
2006,08,16,08,32,15.50
2006,08,16,08,33,15.50
2006,08,16,08,34,15.50
2006,08,16,08,35,15.50
2006,08,16,08,36,15.50
2006,08,16,08,37,15.60
2006,08,16,08,38,15.60
2006,08,16,08,39,15.60
2006,08,16,08,40,15.70
2006,08,16,08,41,15.70
2006,08,16,08,42,15.70
2006,08,16,08,43,15.70
2006,08,16,08,44,15.80
2006,08,16,08,45,15.80
2006,08,16,08,46,15.80
2006,08,16,08,47,15.80
2006,08,16,08,48,15.80
2006,08,16,08,49,15.80
2006,08,16,08,50,15.80
2006,08,16,08,51,15.80
2006,08,16,08,52,15.80
2006,08,16,08,53,15.80
2006,08,16,08,54,15.80
2006,08,16,08,55,15.80
2006,08,16,08,56,15.80
2006,08,16,08,57,15.80
2006,08,16,08,58,15.80
2006,08,16,08,59,15.80
2006,08,16,09,00,15.80
2006,08,16,09,01,15.80
2006,08,16,09,02,15.80
2006,08,16,09,03,15.90
2006,08,16,09,04,15.90
2006,08,16,09,05,15.90
2006,08,16,09,06,15.90
2006,08,16,09,07,15.90
2006,08,16,09,08,15.90
2006,08,16,09,09,15.90
2006,08,16,09,10,15.90
2006,08,16,09,11,15.90
2006,08,16,09,12,15.90
2006,08,16,09,13,15.90
2006,08,16,09,14,16.00
2006,08,16,09,15,16.10
2006,08,16,09,16,16.10
2006,08,16,09,17,16.10
2006,08,16,09,18,16.10
2006,08,16,09,19,16.10
2006,08,16,09,20,16.10
2006,08,16,09,21,16.10
2006,08,16,09,22,16.10
2006,08,16,09,23,16.10
2006,08,16,09,24,16.10
2006,08,16,09,25,16.10
2006,08,16,09,26,16.10
2006,08,16,09,27,16.10
2006,08,16,09,28,16.10
2006,08,16,09,29,16.10
2006,08,16,09,30,16.20
2006,08,16,09,31,16.20
2006,08,16,09,32,16.30
2006,08,16,09,33,16.30
2006,08,16,09,34,16.40
2006,08,16,09,35,16.40
2006,08,16,09,36,16.40
2006,08,16,09,37,16.40
2006,08,16,09,38,16.40
2006,08,16,09,39,16.40
2006,08,16,09,40,16.50
2006,08,16,09,41,16.60
2006,08,16,09,42,16.60
2006,08,16,09,43,16.70
2006,08,16,09,44,16.70
2006,08,16,09,45,16.70
2006,08,16,09,46,16.70
2006,08,16,09,47,16.70
2006,08,16,09,48,16.70
2006,08,16,09,49,16.70
2006,08,16,09,50,16.70
2006,08,16,09,51,16.70
2006,08,16,09,52,16.70
2006,08,16,09,53,16.80
2006,08,16,09,54,16.80
2006,08,16,09,55,16.80
2006,08,16,09,56,16.90
2006,08,16,09,57,16.90
2006,08,16,09,58,16.90
2006,08,16,09,59,16.90
2006,08,16,10,00,17.00
2006,08,16,10,01,17.00
2006,08,16,10,02,17.10
2006,08,16,10,03,17.10
2006,08,16,10,04,17.10
2006,08,16,10,05,17.10
2006,08,16,10,06,17.10
2006,08,16,10,07,17.10
2006,08,16,10,08,17.00
2006,08,16,10,09,17.00
2006,08,16,10,10,17.00
2006,08,16,10,11,17.00
2006,08,16,10,12,17.00
2006,08,16,10,13,17.10
2006,08,16,10,14,17.20
2006,08,16,10,15,17.30
2006,08,16,10,16,17.30
2006,08,16,10,17,17.30
2006,08,16,10,18,17.30
2006,08,16,10,19,17.30
2006,08,16,10,20,17.30
2006,08,16,10,21,17.30
2006,08,16,10,22,17.30
2006,08,16,10,23,17.30
2006,08,16,10,24,17.30
2006,08,16,10,25,17.30
2006,08,16,10,26,17.40
2006,08,16,10,27,17.40
2006,08,16,10,28,17.50
2006,08,16,10,29,17.50
2006,08,16,10,30,17.60
2006,08,16,10,31,17.60
2006,08,16,10,32,17.60
2006,08,16,10,33,17.50
2006,08,16,10,34,17.60
2006,08,16,10,35,17.60
2006,08,16,10,36,17.50
2006,08,16,10,37,17.50
2006,08,16,10,38,17.50
2006,08,16,10,39,17.50
2006,08,16,10,40,17.50
2006,08,16,10,41,17.60
2006,08,16,10,42,17.60
2006,08,16,10,43,17.70
2006,08,16,10,44,17.70
2006,08,16,10,45,17.80
2006,08,16,10,46,17.80
2006,08,16,10,47,17.70
2006,08,16,10,48,17.70
2006,08,16,10,49,17.60
2006,08,16,10,50,17.50
2006,08,16,10,51,17.40
2006,08,16,10,52,17.40
2006,08,16,10,53,17.50
2006,08,16,10,54,17.50
2006,08,16,10,55,17.60
2006,08,16,10,56,17.70
2006,08,16,10,57,17.80
2006,08,16,10,58,17.90
2006,08,16,10,59,17.90
2006,08,16,11,00,17.90
2006,08,16,11,01,17.80
2006,08,16,11,02,17.80
2006,08,16,11,03,17.80
2006,08,16,11,04,17.90
2006,08,16,11,05,17.90
2006,08,16,11,06,17.80
2006,08,16,11,07,17.80
2006,08,16,11,08,17.80
2006,08,16,11,09,17.80
2006,08,16,11,10,17.80
2006,08,16,11,11,17.90
2006,08,16,11,12,17.80
2006,08,16,11,13,17.80
2006,08,16,11,14,17.60
2006,08,16,11,15,17.50
2006,08,16,11,16,17.60
2006,08,16,11,17,17.60
2006,08,16,11,18,17.70
2006,08,16,11,19,17.70
2006,08,16,11,20,17.70
2006,08,16,11,21,17.70
2006,08,16,11,22,17.70
2006,08,16,11,23,17.60
2006,08,16,11,24,17.60
2006,08,16,11,25,17.50
2006,08,16,11,26,17.40
2006,08,16,11,27,17.30
2006,08,16,11,28,17.30
2006,08,16,11,29,17.30
2006,08,16,11,30,17.30
2006,08,16,11,31,17.30
2006,08,16,11,32,17.40
2006,08,16,11,33,17.40
2006,08,16,11,34,17.40
2006,08,16,11,35,17.40
2006,08,16,11,36,17.40
2006,08,16,11,37,17.40
2006,08,16,11,38,17.40
2006,08,16,11,39,17.40
2006,08,16,11,40,17.40
2006,08,16,11,41,17.50
2006,08,16,11,42,17.50
2006,08,16,11,43,17.40
2006,08,16,11,44,17.30
2006,08,16,11,45,17.30
2006,08,16,11,46,17.30
2006,08,16,11,47,17.30
2006,08,16,11,48,17.30
2006,08,16,11,49,17.30
2006,08,16,11,50,17.30
2006,08,16,11,51,17.40
2006,08,16,11,52,17.40
2006,08,16,11,53,17.50
2006,08,16,11,54,17.50
2006,08,16,11,55,17.50
2006,08,16,11,56,17.50
2006,08,16,11,57,17.50
2006,08,16,11,58,17.40
2006,08,16,11,59,17.40
2006,08,16,12,00,17.40
2006,08,16,12,01,17.40
2006,08,16,12,02,17.40
2006,08,16,12,03,17.40
2006,08,16,12,04,17.30
2006,08,16,12,05,17.30
2006,08,16,12,06,17.30
2006,08,16,12,07,17.40
2006,08,16,12,08,17.50
2006,08,16,12,09,17.60
2006,08,16,12,10,17.80
2006,08,16,12,11,17.90
2006,08,16,12,12,18.00
2006,08,16,12,13,18.10
2006,08,16,12,14,18.20
2006,08,16,12,15,18.20
2006,08,16,12,16,18.20
2006,08,16,12,17,18.10
2006,08,16,12,18,18.10
2006,08,16,12,19,18.10
2006,08,16,12,20,18.20
2006,08,16,12,21,18.20
2006,08,16,12,22,18.20
2006,08,16,12,23,18.20
2006,08,16,12,24,18.10
2006,08,16,12,25,18.00
2006,08,16,12,26,17.90
2006,08,16,12,27,18.00
2006,08,16,12,28,17.90
2006,08,16,12,29,18.10
2006,08,16,12,30,18.10
2006,08,16,12,31,18.10
2006,08,16,12,32,17.90
2006,08,16,12,33,17.70
2006,08,16,12,34,17.60
2006,08,16,12,35,17.60
2006,08,16,12,36,17.60
2006,08,16,12,37,17.80
2006,08,16,12,38,17.90
2006,08,16,12,39,18.10
2006,08,16,12,40,18.20
2006,08,16,12,41,18.10
2006,08,16,12,42,18.00
2006,08,16,12,43,17.90
2006,08,16,12,44,17.90
2006,08,16,12,45,18.00
2006,08,16,12,46,18.10
2006,08,16,12,47,18.10
2006,08,16,12,48,18.20
2006,08,16,12,49,18.20
2006,08,16,12,50,18.20
2006,08,16,12,51,18.10
2006,08,16,12,52,18.10
2006,08,16,12,53,18.10
2006,08,16,12,54,18.20
2006,08,16,12,55,18.20
2006,08,16,12,56,18.30
2006,08,16,12,57,18.40
2006,08,16,12,58,18.60
2006,08,16,12,59,18.70
2006,08,16,13,00,18.90
2006,08,16,13,01,18.90
2006,08,16,13,02,19.00
2006,08,16,13,03,19.10
2006,08,16,13,04,19.10
2006,08,16,13,05,19.20
2006,08,16,13,06,19.20
2006,08,16,13,07,19.10
2006,08,16,13,08,19.10
2006,08,16,13,09,19.10
2006,08,16,13,10,19.10
2006,08,16,13,11,19.10
2006,08,16,13,12,19.10
2006,08,16,13,13,18.90
2006,08,16,13,14,18.90
2006,08,16,13,15,18.90
2006,08,16,13,16,18.80
2006,08,16,13,17,18.90
2006,08,16,13,18,18.90
2006,08,16,13,19,18.90
2006,08,16,13,20,18.90
2006,08,16,13,21,18.90
2006,08,16,13,22,18.90
2006,08,16,13,23,18.90
2006,08,16,13,24,19.00
2006,08,16,13,25,19.10
2006,08,16,13,26,19.20
2006,08,16,13,27,19.20
2006,08,16,13,28,19.20
2006,08,16,13,29,19.30
2006,08,16,13,30,19.30
2006,08,16,13,31,19.40
2006,08,16,13,32,19.30
2006,08,16,13,33,19.30
2006,08,16,13,34,19.30
2006,08,16,13,35,19.30
2006,08,16,13,36,19.30
2006,08,16,13,37,19.20
2006,08,16,13,38,19.30
2006,08,16,13,39,19.20
2006,08,16,13,40,19.20
2006,08,16,13,41,19.10
2006,08,16,13,42,19.10
2006,08,16,13,43,19.00
2006,08,16,13,44,19.10
2006,08,16,13,45,19.10
2006,08,16,13,46,19.10
2006,08,16,13,47,18.90
2006,08,16,13,48,18.90
2006,08,16,13,49,18.90
2006,08,16,13,50,19.00
2006,08,16,13,51,19.10
2006,08,16,13,52,19.10
2006,08,16,13,53,19.10
2006,08,16,13,54,19.10
2006,08,16,13,55,19.10
2006,08,16,13,56,19.20
2006,08,16,13,57,19.30
2006,08,16,13,58,19.40
2006,08,16,13,59,19.60
2006,08,16,14,00,19.70
2006,08,16,14,01,19.80
2006,08,16,14,02,19.90
2006,08,16,14,03,20.10
2006,08,16,14,04,20.20
2006,08,16,14,05,20.20
2006,08,16,14,06,20.20
2006,08,16,14,07,20.20
2006,08,16,14,08,20.20
2006,08,16,14,09,20.30
2006,08,16,14,10,20.20
2006,08,16,14,11,20.20
2006,08,16,14,12,20.10
2006,08,16,14,13,20.10
2006,08,16,14,14,20.10
2006,08,16,14,15,20.20
2006,08,16,14,16,20.20
2006,08,16,14,17,20.20
2006,08,16,14,18,20.00
2006,08,16,14,19,19.90
2006,08,16,14,20,19.90
2006,08,16,14,21,20.00
2006,08,16,14,22,20.10
2006,08,16,14,23,20.10
2006,08,16,14,24,20.20
2006,08,16,14,25,20.20
2006,08,16,14,26,20.20
2006,08,16,14,27,20.20
2006,08,16,14,28,20.10
2006,08,16,14,29,20.00
2006,08,16,14,30,19.90
2006,08,16,14,31,19.80
2006,08,16,14,32,19.70
2006,08,16,14,33,19.70
2006,08,16,14,34,19.60
2006,08,16,14,35,19.60
2006,08,16,14,36,19.70
2006,08,16,14,37,19.80
2006,08,16,14,38,19.90
2006,08,16,14,39,20.10
2006,08,16,14,40,20.10
2006,08,16,14,41,20.10
2006,08,16,14,42,20.10
2006,08,16,14,43,20.10
2006,08,16,14,44,20.20
2006,08,16,14,45,20.20
2006,08,16,14,46,20.30
2006,08,16,14,47,20.40
2006,08,16,14,48,20.40
2006,08,16,14,49,20.50
2006,08,16,14,50,20.60
2006,08,16,14,51,20.70
2006,08,16,14,52,20.80
2006,08,16,14,53,21.00
2006,08,16,14,54,21.10
2006,08,16,14,55,21.10
2006,08,16,14,56,21.20
2006,08,16,14,57,21.30
2006,08,16,14,58,21.30
2006,08,16,14,59,21.30
2006,08,16,15,00,21.20
2006,08,16,15,01,21.20
2006,08,16,15,02,21.20
2006,08,16,15,03,21.10
2006,08,16,15,04,21.10
2006,08,16,15,05,21.00
2006,08,16,15,06,21.00
2006,08,16,15,07,20.80
2006,08,16,15,08,20.70
2006,08,16,15,09,20.70
2006,08,16,15,10,20.80
2006,08,16,15,11,20.90
2006,08,16,15,12,21.00
2006,08,16,15,13,21.00
2006,08,16,15,14,21.10
2006,08,16,15,15,21.20
2006,08,16,15,16,21.30
2006,08,16,15,17,21.40
2006,08,16,15,18,21.40
2006,08,16,15,19,21.40
2006,08,16,15,20,21.40
2006,08,16,15,21,21.30
2006,08,16,15,22,21.20
2006,08,16,15,23,21.20
2006,08,16,15,24,21.10
2006,08,16,15,25,21.10
2006,08,16,15,26,21.10
2006,08,16,15,27,21.10
2006,08,16,15,28,21.20
2006,08,16,15,29,21.30
2006,08,16,15,30,21.40
2006,08,16,15,31,21.40
2006,08,16,15,32,21.40
2006,08,16,15,33,21.40
2006,08,16,15,34,21.50
2006,08,16,15,35,21.60
2006,08,16,15,36,21.60
2006,08,16,15,37,21.80
2006,08,16,15,38,21.90
2006,08,16,15,39,22.10
2006,08,16,15,40,22.20
2006,08,16,15,41,22.30
2006,08,16,15,42,22.40
2006,08,16,15,43,22.50
2006,08,16,15,44,22.40
2006,08,16,15,45,22.50
2006,08,16,15,46,22.60
2006,08,16,15,47,22.60
2006,08,16,15,48,22.60
2006,08,16,15,49,22.50
2006,08,16,15,50,22.40
2006,08,16,15,51,22.40
2006,08,16,15,52,22.40
2006,08,16,15,53,22.30
2006,08,16,15,54,22.30
2006,08,16,15,55,22.20
2006,08,16,15,56,22.30
2006,08,16,15,57,22.40
2006,08,16,15,58,22.50
2006,08,16,15,59,22.60
2006,08,16,16,00,22.70
2006,08,16,16,01,22.70
2006,08,16,16,02,22.60
2006,08,16,16,03,22.50
2006,08,16,16,04,22.40
2006,08,16,16,05,22.40
2006,08,16,16,06,22.50
2006,08,16,16,07,22.50
2006,08,16,16,08,22.50
2006,08,16,16,09,22.50
2006,08,16,16,10,22.50
2006,08,16,16,11,22.40
2006,08,16,16,12,22.40
2006,08,16,16,13,22.40
2006,08,16,16,14,22.50
2006,08,16,16,15,22.60
2006,08,16,16,16,22.60
2006,08,16,16,17,22.70
2006,08,16,16,18,22.70
2006,08,16,16,19,22.70
2006,08,16,16,20,22.70
2006,08,16,16,21,22.70
2006,08,16,16,22,22.70
2006,08,16,16,23,22.60
2006,08,16,16,24,22.60
2006,08,16,16,25,22.40
2006,08,16,16,26,22.40
2006,08,16,16,27,22.30
2006,08,16,16,28,22.30
2006,08,16,16,29,22.40
2006,08,16,16,30,22.40
2006,08,16,16,31,22.40
2006,08,16,16,32,22.40
2006,08,16,16,33,22.40
2006,08,16,16,34,22.40
2006,08,16,16,35,22.40
2006,08,16,16,36,22.40
2006,08,16,16,37,22.50
2006,08,16,16,38,22.50
2006,08,16,16,39,22.50
2006,08,16,16,40,22.40
2006,08,16,16,41,22.40
2006,08,16,16,42,22.40
2006,08,16,16,43,22.40
2006,08,16,16,44,22.50
2006,08,16,16,45,22.50
2006,08,16,16,46,22.50
2006,08,16,16,47,22.50
2006,08,16,16,48,22.50
2006,08,16,16,49,22.50
2006,08,16,16,50,22.50
2006,08,16,16,51,22.50
2006,08,16,16,52,22.60
2006,08,16,16,53,22.60
2006,08,16,16,54,22.60
2006,08,16,16,55,22.70
2006,08,16,16,56,22.70
2006,08,16,16,57,22.70
2006,08,16,16,58,22.70
2006,08,16,16,59,22.70
2006,08,16,17,00,22.80
2006,08,16,17,01,22.80
2006,08,16,17,02,22.80
2006,08,16,17,03,22.90
2006,08,16,17,04,22.90
2006,08,16,17,05,22.90
2006,08,16,17,06,22.90
2006,08,16,17,07,22.90
2006,08,16,17,08,22.90
2006,08,16,17,09,22.90
2006,08,16,17,10,22.90
2006,08,16,17,11,22.90
2006,08,16,17,12,22.90
2006,08,16,17,13,22.90
2006,08,16,17,14,22.90
2006,08,16,17,15,22.90
2006,08,16,17,16,22.90
2006,08,16,17,17,22.90
2006,08,16,17,18,22.90
2006,08,16,17,19,22.80